Location: Newark
(53.3333°N, 83.7500°E)
Time: 17:18:57
(UTC+00:00)

S-56A Canister/Altair - Visible Passes

Search period start: 22 November 2019 00:00
Search period end: 02 December 2019 00:00
Orbit: 634 x 2499 km, 38.9° (Epoch: 22 November)

Date Brightness Start Highest point End Pass type
(mag) Time Alt. Az. Time Alt. Az. Time Alt. Az.
22 Nov 10.0 12:00:24 10° SW 12:08:08 28° S 12:13:42 10° SE visible
22 Nov 9.8 14:05:33 10° WSW 14:10:57 20° SSW 14:11:08 20° SSW visible
23 Nov 10.1 11:27:00 10° SW 11:35:24 29° S 11:41:30 10° ESE visible
23 Nov 9.7 13:32:06 10° WSW 13:38:24 23° SSW 13:40:15 21° S visible
24 Nov 10.3 10:53:34 10° SW 11:02:37 30° S 11:09:10 10° ESE visible
24 Nov 9.8 12:58:37 10° WSW 13:05:48 26° SSW 13:09:25 17° SSE visible
24 Nov 10.6 15:06:08 10° SW 15:06:51 11° SW 15:06:51 11° SW visible
25 Nov 10.0 12:25:06 10° WSW 12:33:08 29° SSW 12:38:36 12° SE visible
25 Nov 10.3 14:31:48 10° WSW 14:35:29 14° SW 14:36:03 14° SSW visible
26 Nov 10.2 11:51:33 10° WSW 12:00:24 31° S 12:06:45 10° SE visible
26 Nov 10.1 13:57:56 10° WSW 14:03:00 17° SSW 14:05:17 15° S visible
27 Nov 10.3 11:17:59 10° WSW 11:27:37 33° S 11:34:30 10° SE visible
27 Nov 10.2 13:24:10 10° WSW 13:30:26 20° SSW 13:34:34 13° S visible
28 Nov 10.4 10:44:24 10° WSW 10:54:46 35° S 11:02:11 10° ESE visible
28 Nov 10.3 12:50:27 10° WSW 12:57:49 24° SSW 13:03:23 10° SSE visible
29 Nov 10.4 12:16:44 10° WSW 12:25:09 27° SSW 12:31:21 10° SSE visible
30 Nov 10.5 11:43:02 10° WSW 11:52:24 30° SSW 11:59:14 10° SE visible
30 Nov 10.8 13:51:22 10° WSW 13:54:35 12° SW 13:57:26 10° SSW visible
01 Dec 10.6 11:09:19 10° WSW 11:19:35 33° SSW 11:27:02 10° SE visible
01 Dec 10.7 13:16:53 10° WSW 13:22:03 15° SW 13:26:21 10° S visible
